Aérodrome :
LOGIN :

S'inscrire | Disclaimer

   EN    FR    IT 

 










Légende :    VFR   VFR Marginal   IFR   IFR Intensif   IFR Très Intensif
Visi : 
Plafond : 
>= 8 km
>= 3000ft
5 à 8 km
1000 à 3000 ft
1500m à 5 km
500 à 1000 ft
800 à 1500m
200 à 500 ft
< 800m
< 200 ft
Symboles :   Orages  Brouillard  Fortes neiges  Fortes précipitations  Vent > 20 kt
SIGMETs :   Divers  Orages  Givrage  Turbulence  Onde Orograph.  Cendres Volcan.






- Altitude de l'aérodrome : 265 ft


ETSH - Holzdorf AB

DERNIER METAR :
  • 270720Z VRB01KT 9000 -RA FEW012 BKN060 BKN090 16/15 Q1017 BLU BLU TEMPO YLO

METARs EXPIRÉS :
  • 270659Z 10002KT 9000 -RA FEW015 SCT060 BKN110 16/15 Q1017 BLU BLU TEMPO YLO
  • 270620Z 15002KT 9000 FEW038 SCT060 BKN110 16/15 Q1017 BLU BLU TEMPO YLO
  • 270520Z 10003KT 9999 FEW015 SCT090 BKN120 15/14 Q1017 BLU BLU TEMPO YLO

TAF TAF ETSH
Valide du 27 à 08h jusqu'au 27 à 17h UTC


270715Z 2708/2717 17005KT 9999 NSW SCT020 BKN050
TEMPO 2708/2712 VRB03KT 6000 -RADZ BKN008 BKN020



MET'MAP, la Météo Aéronautique d'un coup d'oeil ! - Copyright ORBIFLY Décembre 2007 - Disclaimer

ORBIFLY MET'MAP TEAM :

Programmation & Développement : Alexandra Zaïnal
Sur une idée originale de : Baudouin d'Aumeries
Assistance à la programmation : Marc-Olivier Méhu
Soutien technique & logistique : Manuel Goepfert

Contact : metmap@orbifly.com




SOURCES & CREDITS :

   NOAA